User: anonymous   Login
Location: Fort Wayne
(41.1310°N, 85.1290°W)
Time: 11:09:47
(UTC-04:00)
Language:

Cosmos 2082 - Orbit

View from above orbital plane
View from above orbital plane
View from above satellite
View from above satellite

Ground track
Ground track

The orbit data is extracted from the following two-line orbital elements,

1 20624U 90046A   15107.97919378 -.00000019  00000-0  14676-4 0  9999
2 20624 071.0412 070.5167 0013967 163.2555 196.9032 14.14152048285331
Epoch (UTC): 17 April 2015 23:30:02
Eccentricity: 0.0013967
inclination: 71.0412°
perigee height: 835 km
apogee height: 855 km
right ascension of ascending node: 70.5167°
argument of perigee: 163.2555°
revolutions per day: 14.14152048
mean anomaly at epoch: 196.9032°
orbit number at epoch: 28533

The dashed part of the orbit path shows where the satellite is in the earth's shadow,  

DLR